Location: Holyhead Bay
(53.3667°N, 4.6667°W)
Time: 18:45:34
(UTC+00:00)

NOAA 12 - Pass Details

Date: 24 November 2020
Orbit: 795 x 816 km, 98.5° (Epoch: 16 January)

Event Time Altitude Azimuth Distance (km) Brightness Sun altitude
Rises 17:29:32 0° 163° (SSE) 3,332 7.3 -11.3°
Reaches altitude 10° 17:31:52 10° 163° (SSE) 2,404 6.6 -11.7°
Maximum altitude 17:37:12 89° 252° (WSW) 824 4.2 -12.4°
Drops below altitude 10° 17:42:34 10° 344° (NNW) 2,415 6.6 -13.2°
Sets 17:44:55 0° 345° (NNW) 3,349 7.3 -13.5°
